| time (UTC) | temp F | wind direction | speed knots | gust knots | rain 1hr in | rain 24hr in | rain mn in | humidity % | barometer mb |
| 20260505003319 | 65 | 230 | 2.6 | 6.1 | 0.00 | 0.00 | 0.00 | 46 | 1007.4 |
| 20260505002818 | 65 | 190 | 1.7 | 7.0 | 0.00 | 0.00 | 0.00 | 46 | 1007.2 |
| 20260505002252 | 64 | 159 | 1.7 | 7.8 | 0.00 | 0.00 | 0.00 | 46 | 1007.0 |
| 20260505001727 | 64 | 180 | 1.7 | 7.8 | 0.00 | 0.00 | 0.00 | 47 | 1006.9 |
| 20260505001159 | 64 | 128 | 0.9 | 2.6 | 0.00 | 0.00 | 0.00 | 47 | 1006.6 |
| 20260505001009 | 66 | 127 | 0.9 | 1.7 | 0.00 | 0.00 | 0.00 | 42 | 1006.3 |
| 20260505000901 | 65 | 127 | 0.9 | 1.7 | 0.00 | 0.00 | 0.00 | 45 | 1006.4 |
| 20260504235602 | 66 | 111 | 0.9 | 1.7 | 0.00 | 0.00 | 0.00 | 42 | 1006.3 |
| 20260504235041 | 66 | 111 | 0.9 | 2.6 | 0.00 | 0.00 | 0.00 | 40 | 1006.1 |
| 20260504234529 | 67 | 109 | 0.9 | 3.5 | 0.00 | 0.00 | 0.00 | 40 | 1006.1 |
| 20260504234230 | 67 | 96 | 0.9 | 3.5 | 0.00 | 0.00 | 0.00 | 40 | 1006.1 |
| 20260504233457 | 67 | 101 | 0.9 | 2.6 | 0.00 | 0.00 | 0.00 | 38 | 1005.9 |
| 20260504232954 | 68 | 101 | 0.9 | 2.6 | 0.00 | 0.00 | 0.00 | 38 | 1005.8 |
| 20260504232453 | 68 | 107 | 0.9 | 3.5 | 0.00 | 0.00 | 0.00 | 37 | 1005.9 |
| 20260504231924 | 68 | 167 | 1.7 | 3.5 | 0.00 | 0.00 | 0.00 | 37 | 1005.8 |
| 20260504231422 | 68 | 40 | 0.9 | 3.5 | 0.00 | 0.00 | 0.00 | 37 | 1005.7 |
| 20260504230854 | 69 | 342 | 0.9 | 3.5 | 0.00 | 0.00 | 0.00 | 37 | 1005.7 |
| 20260504230353 | 69 | 113 | 0.9 | 3.5 | 0.00 | 0.00 | 0.00 | 37 | 1005.6 |
| 20260504225823 | 69 | 192 | 0.9 | 7.0 | 0.00 | 0.00 | 0.00 | 36 | 1005.6 |
| 20260504225322 | 69 | 140 | 1.7 | 2.6 | 0.00 | 0.00 | 0.00 | 37 | 1005.5 |
| 20260504224803 | 69 | 341 | 1.7 | 6.1 | 0.00 | 0.00 | 0.00 | 36 | 1005.5 |
| 20260504224305 | 70 | 61 | 0.9 | 3.5 | 0.00 | 0.00 | 0.00 | 36 | 1005.5 |
| 20260504223735 | 70 | 105 | 0.9 | 2.6 | 0.00 | 0.00 | 0.00 | 36 | 1005.3 |
| 20260504223233 | 70 | 52 | 1.7 | 3.5 | 0.00 | 0.00 | 0.00 | 37 | 1005.3 |
| 20260504222728 | 70 | 123 | 1.7 | 3.5 | 0.00 | 0.00 | 0.00 | 36 | 1005.2 |
| 20260504222227 | 70 | 306 | 1.7 | 7.0 | 0.00 | 0.00 | 0.00 | 35 | 1005.1 |
| 20260504221700 | 70 | 284 | 1.7 | 7.0 | 0.00 | 0.00 | 0.00 | 36 | 1005.2 |
| 20260504221133 | 70 | 53 | 1.7 | 7.8 | 0.00 | 0.00 | 0.00 | 35 | 1005.2 |
| 20260504220609 | 70 | 204 | 1.7 | 7.8 | 0.00 | 0.00 | 0.00 | 35 | 1005.2 |
| 20260504220311 | 70 | 244 | 1.7 | 6.1 | 0.00 | 0.00 | 0.00 | 36 | 1005.1 |
| 20260504215808 | 70 | 134 | 1.7 | 6.1 | 0.00 | 0.00 | 0.00 | 35 | 1005.1 |
| 20260504215034 | 70 | 141 | 2.6 | 6.1 | 0.00 | 0.00 | 0.00 | 35 | 1005.2 |
| 20260504214533 | 71 | 222 | 1.7 | 7.0 | 0.00 | 0.00 | 0.00 | 34 | 1005.2 |
| 20260504214236 | 71 | 115 | 1.7 | 3.5 | 0.00 | 0.00 | 0.00 | 35 | 1005.1 |
| 20260504213502 | 71 | 126 | 1.7 | 7.0 | 0.00 | 0.00 | 0.00 | 34 | 1005.1 |
| 20260504212933 | 71 | 49 | 1.7 | 7.0 | 0.00 | 0.00 | 0.00 | 34 | 1005.1 |
| 20260504212432 | 71 | 19 | 2.6 | 7.8 | 0.00 | 0.00 | 0.00 | 34 | 1005.2 |
| 20260504211904 | 71 | 100 | 2.6 | 7.8 | 0.00 | 0.00 | 0.00 | 33 | 1005.1 |
| 20260504211401 | 71 | 229 | 2.6 | 10.4 | 0.00 | 0.00 | 0.00 | 32 | 1005.0 |
| 20260504210836 | 71 | 251 | 2.6 | 10.4 | 0.00 | 0.00 | 0.00 | 33 | 1005.1 |
| 20260504210542 | 72 | 282 | 2.6 | 7.8 | 0.00 | 0.00 | 0.00 | 32 | 1005.2 |
| 20260504205809 | 72 | 288 | 2.6 | 7.8 | 0.00 | 0.00 | 0.00 | 33 | 1005.2 |
| 20260504205311 | 72 | 161 | 1.7 | 7.8 | 0.00 | 0.00 | 0.00 | 34 | 1005.1 |
| 20260504204748 | 72 | 242 | 1.7 | 7.8 | 0.00 | 0.00 | 0.00 | 32 | 1005.1 |
| 20260504204248 | 72 | 182 | 2.6 | 7.8 | 0.00 | 0.00 | 0.00 | 31 | 1005.2 |
| 20260504203959 | 73 | 292 | 2.6 | 9.6 | 0.00 | 0.00 | 0.00 | 32 | 1005.4 |
| 20260504203833 | 72 | 140 | 2.6 | 9.6 | 0.00 | 0.00 | 0.00 | 31 | 1005.3 |
| 20260504202726 | 73 | 103 | 2.6 | 8.7 | 0.00 | 0.00 | 0.00 | 31 | 1005.2 |
| 20260504202200 | 72 | 223 | 1.7 | 7.0 | 0.00 | 0.00 | 0.00 | 31 | 1005.2 |
| 20260504202156 | 73 | 309 | 1.7 | 8.7 | 0.00 | 0.00 | 0.00 | 32 | 1005.2 |
| 20260504201159 | 72 | 113 | 2.6 | 7.8 | 0.00 | 0.00 | 0.00 | 31 | 1005.2 |
| 20260504200648 | 71 | 134 | 2.6 | 7.8 | 0.00 | 0.00 | 0.00 | 32 | 1005.1 |
| 20260504200147 | 71 | 222 | 2.6 | 7.0 | 0.00 | 0.00 | 0.00 | 33 | 1005.3 |
| 20260504195917 | 71 | 298 | 1.7 | 7.0 | 0.00 | 0.00 | 0.00 | 32 | 1005.3 |
| 20260504195421 | 71 | 112 | 1.7 | 7.0 | 0.00 | 0.00 | 0.00 | 33 | 1005.3 |
| 20260504194640 | 71 | 57 | 2.6 | 7.0 | 0.00 | 0.00 | 0.00 | 32 | 1005.3 |
| 20260504194138 | 71 | 276 | 2.6 | 7.0 | 0.00 | 0.00 | 0.00 | 31 | 1005.4 |
| 20260504193637 | 71 | 10 | 2.6 | 7.0 | 0.00 | 0.00 | 0.00 | 32 | 1005.4 |
| 20260504193138 | 71 | 59 | 2.6 | 7.0 | 0.00 | 0.00 | 0.00 | 30 | 1005.4 |
| 20260504192958 | 72 | 335 | 2.6 | 7.0 | 0.00 | 0.00 | 0.00 | 31 | 1005.3 |
| 20260504192851 | 73 | 296 | 2.6 | 7.0 | 0.00 | 0.00 | 0.00 | 30 | 1005.4 |
| 20260504191558 | 73 | 317 | 2.6 | 7.0 | 0.00 | 0.00 | 0.00 | 30 | 1005.4 |
| 20260504191035 | 73 | 241 | 1.7 | 7.0 | 0.00 | 0.00 | 0.00 | 32 | 1005.4 |
| 20260504190513 | 73 | 245 | 2.6 | 9.6 | 0.00 | 0.00 | 0.00 | 31 | 1005.5 |
| 20260504185946 | 73 | 283 | 2.6 | 9.6 | 0.00 | 0.00 | 0.00 | 30 | 1005.6 |
| 20260504185425 | 73 | 63 | 2.6 | 7.0 | 0.00 | 0.00 | 0.00 | 30 | 1005.5 |
| 20260504184900 | 72 | 205 | 2.6 | 8.7 | 0.00 | 0.00 | 0.00 | 30 | 1005.7 |
| 20260504184358 | 72 | 156 | 3.5 | 8.7 | 0.00 | 0.00 | 0.00 | 30 | 1005.6 |
| 20260504183858 | 72 | 325 | 3.5 | 8.7 | 0.00 | 0.00 | 0.00 | 31 | 1005.9 |
| 20260504183335 | 72 | 248 | 3.5 | 8.7 | 0.00 | 0.00 | 0.00 | 32 | 1005.8 |
| 20260504182806 | 73 | 252 | 2.6 | 6.1 | 0.00 | 0.00 | 0.00 | 29 | 1005.9 |
| 20260504182512 | 73 | 173 | 2.6 | 8.7 | 0.00 | 0.00 | 0.00 | 29 | 1006.1 |
| 20260504181715 | 72 | 278 | 2.6 | 8.7 | 0.00 | 0.00 | 0.00 | 32 | 1006.1 |
| 20260504181147 | 71 | 155 | 3.5 | 10.4 | 0.00 | 0.00 | 0.00 | 31 | 1005.9 |
| 20260504180621 | 71 | 252 | 3.5 | 10.4 | 0.00 | 0.00 | 0.00 | 33 | 1005.9 |
| 20260504180119 | 72 | 293 | 2.6 | 9.6 | 0.00 | 0.00 | 0.00 | 30 | 1005.9 |
| 20260504175609 | 71 | 136 | 2.6 | 9.6 | 0.00 | 0.00 | 0.00 | 31 | 1006.0 |
| 20260504175605 | 71 | 321 | 2.6 | 9.6 | 0.00 | 0.00 | 0.00 | 31 | 1005.9 |
| 20260504174555 | 71 | 148 | 2.6 | 8.7 | 0.00 | 0.00 | 0.00 | 31 | 1006.0 |
| 20260504174053 | 71 | 240 | 2.6 | 7.8 | 0.00 | 0.00 | 0.00 | 33 | 1005.9 |
| 20260504173757 | 71 | 210 | 3.5 | 9.6 | 0.00 | 0.00 | 0.00 | 32 | 1006.0 |
| 20260504172959 | 71 | 300 | 2.6 | 9.6 | 0.00 | 0.00 | 0.00 | 32 | 1006.1 |
| 20260504172431 | 71 | 122 | 2.6 | 9.6 | 0.00 | 0.00 | 0.00 | 31 | 1006.2 |
| 20260504172200 | 71 | 217 | 2.6 | 8.7 | 0.00 | 0.00 | 0.00 | 32 | 1006.2 |
| 20260504171405 | 70 | 244 | 3.5 | 8.7 | 0.00 | 0.00 | 0.00 | 32 | 1006.2 |
| 20260504170835 | 69 | 153 | 3.5 | 10.4 | 0.00 | 0.00 | 0.00 | 35 | 1006.3 |
| 20260504170335 | 69 | 39 | 3.5 | 10.4 | 0.00 | 0.00 | 0.00 | 33 | 1006.2 |
| 20260504160125 | 67 | 214 | 2.6 | 8.7 | 0.00 | 0.00 | 0.00 | 35 | 1006.6 |
| 20260504150937 | 66 | 128 | 2.6 | 7.8 | 0.00 | 0.00 | 0.00 | 39 | 1007.6 |
| 20260504150410 | 65 | 169 | 2.6 | 7.8 | 0.00 | 0.00 | 0.00 | 39 | 1007.6 |
| 20260504141142 | 62 | 201 | 1.7 | 6.1 | 0.00 | 0.00 | 0.00 | 44 | 1008.1 |
| 20260504140615 | 62 | 76 | 1.7 | 5.2 | 0.00 | 0.00 | 0.00 | 45 | 1008.3 |
| 20260504130352 | 57 | 345 | 1.7 | 6.1 | 0.00 | 0.00 | 0.00 | 50 | 1008.8 |
| 20260504120225 | 52 | 315 | 1.7 | 5.2 | 0.00 | 0.00 | 0.00 | 58 | 1009.2 |
| 20260504110409 | 44 | 225 | 0.9 | 1.7 | 0.00 | 0.00 | 0.00 | 75 | 1009.2 |
| 20260504110135 | 44 | 225 | 0.0 | 1.7 | 0.00 | 0.00 | 0.00 | 74 | 1009.2 |
| 20260504100428 | 43 | 167 | 0.9 | 3.5 | 0.00 | 0.00 | 0.00 | 75 | 1009.3 |
| 20260504081709 | 43 | 155 | 0.0 | 0.9 | 0.00 | 0.00 | 0.00 | 74 | 1009.3 |
| 20260504081142 | 43 | 155 | 0.0 | 0.9 | 0.00 | 0.00 | 0.00 | 73 | 1009.3 |
| 20260504080614 | 43 | 155 | 0.0 | 1.7 | 0.00 | 0.00 | 0.00 | 72 | 1009.1 |
| 20260504080112 | 43 | 155 | 0.0 | 1.7 | 0.00 | 0.00 | 0.00 | 73 | 1009.2 |
| 20260504070336 | 44 | 107 | 0.9 | 2.6 | 0.00 | 0.00 | 0.00 | 69 | 1009.1 |
| 20260504060124 | 43 | 78 | 0.0 | 0.9 | 0.00 | 0.00 | 0.00 | 71 | 1009.2 |
| 20260504050529 | 39 | 67 | 0.9 | 1.7 | 0.00 | 0.00 | 0.00 | 76 | 1009.1 |
| 20260504045735 | 39 | 67 | 0.9 | 1.7 | 0.00 | 0.00 | 0.00 | 76 | 1009.2 |
| 20260504044944 | 38 | 67 | 0.0 | 1.7 | 0.00 | 0.00 | 0.00 | 74 | 1009.2 |
| 20260504044441 | 38 | 67 | 0.0 | 1.7 | 0.00 | 0.00 | 0.00 | 74 | 1009.1 |
| 20260504044211 | 38 | 67 | 0.0 | 1.7 | 0.00 | 0.00 | 0.00 | 73 | 1009.2 |
| 20260504043420 | 39 | 67 | 0.0 | 1.7 | 0.00 | 0.00 | 0.00 | 75 | 1009.1 |
| 20260504042919 | 39 | 67 | 0.9 | 1.7 | 0.00 | 0.00 | 0.00 | 73 | 1009.1 |
| 20260504042420 | 39 | 67 | 0.0 | 1.7 | 0.00 | 0.00 | 0.00 | 73 | 1009.1 |
| 20260504042147 | 39 | 67 | 0.0 | 0.9 | 0.00 | 0.00 | 0.00 | 75 | 1009.0 |
| 20260504041351 | 39 | 67 | 0.0 | 0.9 | 0.00 | 0.00 | 0.00 | 75 | 1009.1 |
| 20260504040852 | 39 | 67 | 0.9 | 1.7 | 0.00 | 0.00 | 0.00 | 76 | 1009.0 |
| 20260504040555 | 39 | 67 | 0.9 | 1.7 | 0.00 | 0.00 | 0.00 | 76 | 1009.0 |
| 20260504040040 | 39 | 67 | 0.9 | 1.7 | 0.00 | 0.00 | 0.00 | 76 | 1009.0 |
| 20260504035532 | 39 | 67 | 0.9 | 1.7 | 0.00 | 0.00 | 0.00 | 77 | 1008.9 |
| 20260504034758 | 39 | 67 | 0.9 | 1.7 | 0.00 | 0.00 | 0.00 | 77 | 1008.8 |
| 20260504034254 | 38 | 67 | 0.9 | 1.7 | 0.00 | 0.00 | 0.00 | 77 | 1008.8 |
| 20260504033753 | 38 | 67 | 0.9 | 1.7 | 0.00 | 0.00 | 0.00 | 78 | 1008.8 |
| 20260504033249 | 38 | 67 | 0.0 | 0.9 | 0.00 | 0.00 | 0.00 | 79 | 1008.7 |
| 20260504032747 | 38 | 67 | 0.0 | 0.9 | 0.00 | 0.00 | 0.00 | 79 | 1008.7 |
| 20260504032515 | 39 | 67 | 0.9 | 1.7 | 0.00 | 0.00 | 0.00 | 79 | 1008.7 |
| 20260504031742 | 39 | 67 | 0.9 | 1.7 | 0.00 | 0.00 | 0.00 | 79 | 1008.7 |
| 20260504031216 | 39 | 67 | 0.9 | 1.7 | 0.00 | 0.00 | 0.00 | 79 | 1008.7 |
| 20260504030714 | 39 | 67 | 0.0 | 1.7 | 0.00 | 0.00 | 0.00 | 78 | 1008.8 |
| 20260504030149 | 39 | 67 | 0.9 | 1.7 | 0.00 | 0.00 | 0.00 | 78 | 1008.8 |
| 20260504025628 | 39 | 67 | 0.9 | 1.7 | 0.00 | 0.00 | 0.00 | 79 | 1008.7 |
| 20260504025131 | 39 | 67 | 0.0 | 0.9 | 0.00 | 0.00 | 0.00 | 77 | 1008.7 |
| 20260504024838 | 39 | 67 | 0.0 | 0.9 | 0.00 | 0.00 | 0.00 | 78 | 1008.6 |
| 20260504024107 | 39 | 67 | 0.0 | 0.9 | 0.00 | 0.00 | 0.00 | 79 | 1008.5 |
| 20260504023542 | 39 | 67 | 0.0 | 0.9 | 0.00 | 0.00 | 0.00 | 79 | 1008.5 |
| 20260504023043 | 39 | 67 | 0.0 | 0.9 | 0.00 | 0.00 | 0.00 | 79 | 1008.6 |
| 20260504022518 | 39 | 67 | 0.9 | 1.7 | 0.00 | 0.00 | 0.00 | 79 | 1008.6 |
| 20260504022017 | 40 | 67 | 0.9 | 1.7 | 0.00 | 0.00 | 0.00 | 77 | 1008.5 |
| 20260504021457 | 40 | 67 | 0.0 | 0.9 | 0.00 | 0.00 | 0.00 | 76 | 1008.5 |
| 20260504020938 | 40 | 67 | 0.0 | 0.9 | 0.00 | 0.00 | 0.00 | 76 | 1008.4 |
| 20260504020413 | 40 | 67 | 0.9 | 1.7 | 0.00 | 0.00 | 0.00 | 78 | 1008.4 |
| 20260504020110 | 40 | 67 | 0.9 | 1.7 | 0.00 | 0.00 | 0.00 | 77 | 1008.3 |
| 20260504015944 | 40 | 67 | 0.9 | 1.7 | 0.00 | 0.00 | 0.00 | 77 | 1008.3 |
| 20260504014819 | 40 | 67 | 0.9 | 1.7 | 0.00 | 0.00 | 0.00 | 77 | 1008.3 |
| 20260504014300 | 40 | 67 | 0.0 | 0.9 | 0.00 | 0.00 | 0.00 | 77 | 1008.3 |
| 20260504013736 | 41 | 67 | 0.0 | 0.9 | 0.00 | 0.00 | 0.00 | 77 | 1008.3 |
| 20260504013220 | 41 | 67 | 0.0 | 0.9 | 0.00 | 0.00 | 0.00 | 77 | 1008.2 |
| 20260504012720 | 41 | 67 | 0.9 | 0.9 | 0.00 | 0.00 | 0.00 | 76 | 1008.2 |
| 20260504012221 | 41 | 67 | 0.9 | 1.7 | 0.00 | 0.00 | 0.00 | 74 | 1008.3 |
| 20260504011929 | 42 | 67 | 0.9 | 1.7 | 0.00 | 0.00 | 0.00 | 74 | 1008.2 |
| 20260504011140 | 42 | 67 | 0.9 | 1.7 | 0.00 | 0.00 | 0.00 | 74 | 1008.1 |
| 20260504010641 | 42 | 67 | 0.0 | 0.9 | 0.00 | 0.00 | 0.00 | 74 | 1008.1 |
| 20260504010118 | 42 | 67 | 0.0 | 0.9 | 0.00 | 0.00 | 0.00 | 73 | 1008.0 |
| 20260504005551 | 43 | 67 | 0.9 | 1.7 | 0.00 | 0.00 | 0.00 | 72 | 1008.0 |
| 20260504005026 | 43 | 67 | 0.0 | 1.7 | 0.00 | 0.00 | 0.00 | 70 | 1007.9 |
| 20260504004758 | 44 | 67 | 0.0 | 0.0 | 0.00 | 0.00 | 0.00 | 64 | 1007.9 |
| 20260504004024 | 44 | 67 | 0.0 | 0.0 | 0.00 | 0.00 | 0.00 | 62 | 1007.8 |